Погода в Усть-Очее

Россия / Архангельская область     62°24′40″N   48°36′46″E
темп.,
°C
ветер,
м/с
пор.,
м/с
влажн.,
%
обл.,
%
осадки,
мм/ч
давл.,
гПа
погр.,
м
5 августа, чт
чт500:00+11з2789100 0.0 1011140
03:00+9з289039 0.0 1013164
06:00+12сз387021 0.0 1014284
09:00+17зсз574620 0.0 10141351
12:00+19зсз56404 0.0 10151761
15:00+19сз664322 0.0 10151926
18:00+16ссз38535 0.0 10171572
21:00+10сз11755 0.0 101710
6 августа, пт
пт600:00+8зсз11845 0.0 101810
03:00+7ссз22925 0.0 101923
06:00+11ссз35775 0.0 1019283
09:00+15ссз355496 0.0 10201145
12:00+17с4447100 0.0 10191699
15:00+17с3348100 0.0 10201644
18:00+15св346092 0.0 1020610
21:00+10св118097 0.0 102111
7 августа, сб
сб700:00+9ссв22847 0.0 102116
03:00+7с22885 0.0 102233
06:00+11с25680 0.0 1023208
09:00+15ссв34480 0.0 10221148
12:00+18ссв23404 0.0 10211699
15:00+19ссв33374 0.0 10211811
18:00+18св24467 0.0 1021413
21:00+11ссв2269100 0.0 102220
8 августа, вс
вс800:00+9всв238250 0.0 102257
03:00+8в2287100 0.0 102335
06:00+11всв2472100 0.0 1023173
09:00+15в2253100 0.0 1023661
12:00+18всв1144100 0.0 10221203
15:00+18вюв1242100 0.0 10221424
18:00+11юз2390100 0.1 1023113
21:00+12юв1281100 0.1 102251
9 августа, пн
пн900:00+10вюв1292100 0.4 102265
03:00+11в2889100 0.5 1021236
06:00+10в41195100 2.6 1020386
09:00+10в41097100 3.8 1020524
12:00+12в51194100 0.1 1019585
15:00+11в51093100 0.4 1020537
18:00+11всв4998100 0.9 1020437
21:00+10всв31097100 1.2 1020360